Location: Waco, TX
(31.5480°N, 97.1670°W)
Time: 21:52:53
(UTC-06:00)

ISS - Pass Details

Date: 21 February 2019
Orbit: 403 x 411 km, 51.6° (Epoch: 22 February)

Event Time Altitude Azimuth Distance (km) Brightness Sun altitude
Rises 05:43:42 0° 191° (S) 2,301 - -17.9°
Exits shadow 05:43:46 - 191° (S) 2,277 -0.1 -17.9°
Reaches altitude 10° 05:46:15 10° 170° (S) 1,446 -0.9 -17.4°
Maximum altitude 05:48:27 17° 127° (SE) 1,102 -0.9 -16.9°
Drops below altitude 10° 05:50:39 10° 84° (E) 1,451 0.3 -16.4°
Sets 05:53:13 0° 64° (ENE) 2,313 1.1 -15.9°
